TimeCST,TemperatureF,Dew PointF,Humidity,Sea Level PressureIn,VisibilityMPH,Wind Direction,Wind SpeedMPH,Gust SpeedMPH,PrecipitationIn,Events,Conditions,WindDirDegrees,DateUTC
12:35 AM,28.4,19.4,69,29.61,10.0,NNW,8.1,-,N/A,,Overcast,340,2013-01-30 06:35:00
12:55 AM,28.4,19.4,69,29.61,10.0,NNW,9.2,-,N/A,,Overcast,340,2013-01-30 06:55:00
1:15 AM,26.6,21.2,80,29.61,10.0,NNW,10.4,-,N/A,,Overcast,330,2013-01-30 07:15:00
1:35 AM,26.6,19.4,74,29.58,10.0,NNW,10.4,-,N/A,,Overcast,340,2013-01-30 07:35:00
1:55 AM,26.6,19.4,74,29.56,10.0,NNW,11.5,-,N/A,,Overcast,330,2013-01-30 07:55:00
2:15 AM,26.6,19.4,74,29.55,10.0,NNW,15.0,-,N/A,,Overcast,330,2013-01-30 08:15:00
2:35 AM,26.6,19.4,74,29.58,10.0,NW,11.5,-,N/A,,Overcast,320,2013-01-30 08:35:00
2:55 AM,26.6,19.4,74,29.55,10.0,NNW,15.0,20.7,N/A,,Overcast,340,2013-01-30 08:55:00
3:15 AM,26.6,19.4,74,29.54,10.0,NNW,12.7,-,N/A,,Overcast,340,2013-01-30 09:15:00
3:35 AM,26.6,17.6,69,29.53,10.0,NNW,12.7,20.7,N/A,,Overcast,340,2013-01-30 09:35:00
3:55 AM,24.8,19.4,80,29.55,10.0,North,13.8,21.9,N/A,,Overcast,350,2013-01-30 09:55:00
4:15 AM,24.8,17.6,74,29.54,10.0,North,11.5,17.3,N/A,,Overcast,350,2013-01-30 10:15:00
4:35 AM,24.8,17.6,74,29.55,10.0,North,9.2,-,N/A,,Overcast,350,2013-01-30 10:35:00
4:55 AM,24.8,17.6,74,29.56,10.0,North,9.2,18.4,N/A,,Overcast,360,2013-01-30 10:55:00
5:15 AM,24.8,17.6,74,29.55,10.0,North,10.4,16.1,N/A,,Overcast,350,2013-01-30 11:15:00
5:35 AM,24.8,15.8,69,29.55,10.0,NNW,11.5,-,N/A,,Overcast,340,2013-01-30 11:35:00
5:55 AM,24.8,15.8,69,29.55,10.0,NNW,8.1,-,N/A,,Overcast,340,2013-01-30 11:55:00
6:15 AM,24.8,15.8,69,29.53,10.0,North,8.1,-,N/A,,Overcast,10,2013-01-30 12:15:00
6:35 AM,24.8,15.8,69,29.52,10.0,NNE,8.1,-,N/A,,Overcast,20,2013-01-30 12:35:00
6:55 AM,24.8,15.8,69,29.53,10.0,North,5.8,-,N/A,,Overcast,350,2013-01-30 12:55:00
7:15 AM,23.0,15.8,74,29.53,10.0,North,8.1,-,N/A,,Overcast,350,2013-01-30 13:15:00
7:35 AM,23.0,15.8,74,29.52,10.0,North,11.5,17.3,N/A,,Overcast,350,2013-01-30 13:35:00
7:55 AM,23.0,14.0,68,29.52,9.0,North,11.5,16.1,N/A,,Overcast,360,2013-01-30 13:55:00
8:15 AM,23.0,14.0,68,29.52,10.0,North,8.1,-,N/A,,Overcast,360,2013-01-30 14:15:00
8:35 AM,21.2,14.0,74,29.51,10.0,North,9.2,-,N/A,,Overcast,10,2013-01-30 14:35:00
8:55 AM,21.2,14.0,74,29.50,9.0,North,11.5,-,N/A,,Overcast,360,2013-01-30 14:55:00
9:15 AM,21.2,14.0,74,29.50,3.0,North,6.9,-,N/A,,Overcast,10,2013-01-30 15:15:00
9:35 AM,21.2,15.8,80,29.49,3.0,North,11.5,19.6,N/A,,Overcast,10,2013-01-30 15:35:00
9:55 AM,21.2,14.0,74,29.48,2.0,North,8.1,-,N/A,,Overcast,360,2013-01-30 15:55:00
10:15 AM,21.2,15.8,80,29.47,3.0,North,9.2,-,N/A,,Overcast,350,2013-01-30 16:15:00
10:35 AM,21.2,15.8,80,29.49,3.0,North,8.1,-,N/A,,Overcast,360,2013-01-30 16:35:00
10:55 AM,21.2,15.8,80,29.49,2.5,North,8.1,-,N/A,,Overcast,360,2013-01-30 16:55:00
11:15 AM,21.2,15.8,80,29.48,2.5,NNE,11.5,16.1,N/A,,Overcast,20,2013-01-30 17:15:00
11:35 AM,19.4,14.0,80,29.47,2.0,NNE,12.7,18.4,N/A,,Overcast,30,2013-01-30 17:35:00
11:55 AM,19.4,14.0,80,29.46,4.0,North,8.1,-,N/A,,Overcast,10,2013-01-30 17:55:00
12:15 PM,19.4,14.0,80,29.47,2.0,North,13.8,18.4,N/A,,Overcast,360,2013-01-30 18:15:00
12:35 PM,19.4,12.2,74,29.48,1.2,North,10.4,-,N/A,,Overcast,360,2013-01-30 18:35:00
12:55 PM,19.4,12.2,74,29.47,1.0,NNE,12.7,16.1,N/A,,Overcast,20,2013-01-30 18:55:00
1:15 PM,17.6,10.4,73,29.47,1.0,North,10.4,18.4,N/A,,Overcast,10,2013-01-30 19:15:00
1:35 PM,17.6,12.2,79,29.46,1.5,North,12.7,18.4,N/A,,Overcast,360,2013-01-30 19:35:00
1:55 PM,15.8,10.4,79,29.46,1.2,North,11.5,16.1,N/A,,Overcast,360,2013-01-30 19:55:00
2:15 PM,15.8,10.4,79,29.47,2.0,North,12.7,17.3,N/A,,Overcast,10,2013-01-30 20:15:00
2:35 PM,15.8,10.4,79,29.47,2.5,North,12.7,19.6,N/A,,Overcast,360,2013-01-30 20:35:00
2:55 PM,15.8,8.6,73,29.47,3.0,North,11.5,-,N/A,,Overcast,360,2013-01-30 20:55:00
3:15 PM,15.8,8.6,73,29.47,0.8,North,11.5,-,N/A,,Overcast,360,2013-01-30 21:15:00
3:35 PM,15.8,10.4,79,29.47,3.0,North,11.5,16.1,N/A,,Overcast,350,2013-01-30 21:35:00
3:55 PM,15.8,8.6,73,29.48,3.0,North,10.4,-,N/A,,Overcast,360,2013-01-30 21:55:00
4:15 PM,15.8,10.4,79,29.47,3.0,North,10.4,-,N/A,,Overcast,350,2013-01-30 22:15:00
4:35 PM,15.8,8.6,73,29.47,4.0,NNW,12.7,16.1,N/A,,Overcast,340,2013-01-30 22:35:00
4:55 PM,15.8,8.6,73,29.48,3.0,NNW,11.5,19.6,N/A,,Overcast,340,2013-01-30 22:55:00
5:15 PM,15.8,10.4,79,29.48,7.0,NNW,10.4,-,N/A,,Overcast,340,2013-01-30 23:15:00
5:35 PM,15.8,8.6,73,29.48,6.0,NNW,15.0,-,N/A,,Overcast,330,2013-01-30 23:35:00
5:55 PM,15.8,8.6,73,29.48,9.0,North,15.0,19.6,N/A,,Overcast,350,2013-01-30 23:55:00
6:15 PM,15.8,6.8,68,29.48,9.0,NNW,12.7,19.6,N/A,,Overcast,340,2013-01-31 00:15:00
6:35 PM,15.8,8.6,73,29.48,10.0,NNW,6.9,18.4,N/A,,Overcast,330,2013-01-31 00:35:00
6:55 PM,15.8,6.8,68,29.48,9.0,NNW,12.7,19.6,N/A,,Overcast,330,2013-01-31 00:55:00
7:15 PM,14.0,6.8,73,29.49,7.0,NNW,10.4,20.7,N/A,,Overcast,330,2013-01-31 01:15:00
7:35 PM,14.0,6.8,73,29.48,10.0,NNW,11.5,16.1,N/A,,Overcast,330,2013-01-31 01:35:00
7:55 PM,14.0,6.8,73,29.48,7.0,NNW,12.7,-,N/A,,Overcast,330,2013-01-31 01:55:00
8:15 PM,14.0,6.8,73,29.48,5.0,NW,10.4,18.4,N/A,,Overcast,320,2013-01-31 02:15:00
8:35 PM,12.2,6.8,79,29.48,3.0,NW,12.7,19.6,N/A,,Overcast,320,2013-01-31 02:35:00
8:55 PM,12.2,8.6,85,29.48,3.0,NW,11.5,19.6,N/A,,Overcast,320,2013-01-31 02:55:00
9:15 PM,12.2,6.8,79,29.48,1.8,NNW,15.0,-,N/A,,Overcast,330,2013-01-31 03:15:00
9:35 PM,12.2,6.8,79,29.48,5.0,NW,10.4,19.6,N/A,,Overcast,320,2013-01-31 03:35:00
9:55 PM,12.2,6.8,79,29.48,3.0,NW,12.7,17.3,N/A,,Overcast,320,2013-01-31 03:55:00
10:15 PM,12.2,6.8,79,29.48,2.0,NW,11.5,18.4,N/A,,Overcast,320,2013-01-31 04:15:00
10:35 PM,12.2,6.8,79,29.48,0.8,NW,11.5,-,N/A,,Overcast,320,2013-01-31 04:35:00
10:55 PM,12.2,6.8,79,29.49,0.8,NNW,10.4,-,N/A,,Overcast,340,2013-01-31 04:55:00
11:15 PM,12.2,6.8,79,29.50,1.5,NNW,8.1,-,N/A,,Overcast,340,2013-01-31 05:15:00
11:35 PM,12.2,6.8,79,29.50,5.0,NNW,10.4,18.4,N/A,,Mostly Cloudy,340,2013-01-31 05:35:00
11:55 PM,12.2,5.0,73,29.50,5.0,NNW,12.7,19.6,N/A,,Overcast,340,2013-01-31 05:55:00